Location: Deneb Observatory
(47.2267°N, 100.4953°W)
Time: 03:54:43
(UTC-05:00)

Iridium 66 - Visible Passes

Search period start: 07 July 2015 00:00
Search period end: 17 July 2015 00:00
Orbit: 776 x 779 km, 86.4° (Epoch: 06 July)

Date Brightness Start Highest point End Pass type
(mag) Time Alt. Az. Time Alt. Az. Time Alt. Az.
07 Jul 7.4 04:21:17 10° N 04:26:08 38° ENE 04:31:01 10° SSE visible
08 Jul 8.2 03:48:15 10° NNE 03:52:19 23° ENE 03:56:28 10° SE visible
09 Jul 8.7 03:15:52 10° NE 03:18:19 14° ENE 03:21:01 10° E visible
09 Jul 6.1 04:54:41 10° N 04:59:57 88° W 05:05:10 10° S visible
10 Jul 6.8 04:21:14 10° N 04:26:22 54° E 04:31:28 10° SSE visible
11 Jul 7.7 03:48:01 10° NNE 03:52:37 31° ENE 03:57:16 10° SE visible
12 Jul 8.4 03:15:10 10° NNE 03:18:44 19° ENE 03:22:26 10° ESE visible
12 Jul 6.1 04:54:51 10° N 05:00:02 63° W 05:05:10 10° S visible
13 Jul 8.8 02:43:31 10° NE 02:44:40 11° ENE 02:46:07 10° E visible
13 Jul 6.2 04:21:17 10° N 04:26:31 75° E 04:31:44 10° S visible
14 Jul 7.1 03:47:54 10° N 03:52:52 43° E 03:57:50 10° SSE visible
15 Jul 7.9 03:14:48 10° NNE 03:19:04 26° ENE 03:23:26 10° SE visible
15 Jul 6.5 04:55:06 10° NNW 05:00:04 45° W 05:05:00 10° SSW visible
16 Jul 8.5 02:42:12 10° NNE 02:45:07 15° ENE 02:48:14 10° ESE visible
16 Jul 6.0 04:21:23 10° N 04:26:38 79° W 04:31:45 10° S visible
